Weather History for Santa Ana, CA

Change the Weather History Date:

Wednesday, October 5, 2011

  Actual Average Record
Temperature  
Mean Temperature 63 °F 69 °F  
Max Temperature 65 °F 76 °F 99 °F (2005)
Min Temperature 60 °F 61 °F 56 °F (2009)
Degree Days  
Heating Degree Days 2 0  
Month to date heating degree days 2 0  
Since 1 July heating degree days 2 1  
Cooling Degree Days 0 4  
Month to date cooling degree days 24 20  
Year to date cooling degree days 747 788  
Growing Degree Days 12 (Base 50)    
Moisture  
Dew Point 57 °F    
Average Humidity 83    
Maximum Humidity 93    
Minimum Humidity 72    
Precipitation  
Precipitation 0.62 in 0.01 in 0.62 in (2011)
Month to date precipitation 0.68 0.03  
Year to date precipitation 6.13 9.28  
Since 1 July precipitation 0.78 0.32  
Snow  
Snow 0.00 in - - ()
Month to date snowfall 0.0  
Year to date snowfall 0.0  
Since 1 July snowfall 0.0  
Snow Depth 0.00 in    
Sea Level Pressure  
Sea Level Pressure 29.88 in    
Wind  
Wind Speed 9 mph (SSW)    
Max Wind Speed 22 mph    
Max Gust Speed 29 mph    
Visibility 5 miles    
Events Rain    
T = Trace of Precipitation, MM = Missing Value Source: NWS Daily Summary

Daily Weather History Graph

Daily Weather History Graph

Search for Another Location

Airport:

Trip Planner

Search our weather history database for the weather conditions in past years. The results will help you decide how hot, cold, wet, or windy it might be!

Date:

Astronomy

Oct. 05, 2011 Rise Set
Actual Time 6:48 AM PDT 6:30 PM PDT
Civil Twilight 6:23 AM PDT 6:55 PM PDT
Nautical Twilight 5:54 AM PDT 7:24 PM PDT
Astronomical Twilight 5:25 AM PDT 7:53 PM PDT
Moon 2:58 PM PDT (10/5) 12:56 AM PDT (10/5)
Length of Visible Light 12h 31m
Length of Day
11h 42m
Waxing Gibbous, 67% of the Moon is Illuminated
Oct 5
Waxing Gibbous
Oct 11
Full
Oct 19
Last Quarter
Oct 26
New
Nov 2
First Quarter

Hourly Weather History & Observations

Time (PDT) Temp. Dew Point Humidity Pressure Visibility Wind Dir Wind Speed Gust Speed Precip Events Conditions
12:38 AM 62.6 °F 55.4 °F 77% 29.98 in 10.0 mi SW 3.5 mph - N/A   Overcast
12:53 AM 63.0 °F 55.9 °F 78% 29.97 in 10.0 mi SSW 4.6 mph - N/A   Overcast
1:53 AM 61.0 °F 55.0 °F 81% 29.96 in 10.0 mi South 3.5 mph - N/A   Partly Cloudy
2:53 AM 61.0 °F 55.0 °F 81% 29.96 in 10.0 mi South 3.5 mph - N/A   Partly Cloudy
3:23 AM 60.8 °F 55.4 °F 82% 29.95 in 10.0 mi South 3.5 mph - N/A   Mostly Cloudy
3:53 AM 60.8 °F 55.4 °F 82% 29.94 in 10.0 mi SSE 3.5 mph - N/A   Overcast
4:19 AM 62.6 °F 55.4 °F 77% 29.94 in 10.0 mi SE 3.5 mph - N/A   Overcast
4:53 AM 62.6 °F 55.4 °F 77% 29.95 in 10.0 mi SSW 3.5 mph - N/A   Overcast
5:53 AM 62.1 °F 55.0 °F 78% 29.93 in 10.0 mi SE 5.8 mph - N/A   Mostly Cloudy
6:53 AM 62.1 °F 54.0 °F 75% 29.94 in 10.0 mi SE 8.1 mph - N/A   Overcast
8:25 AM 60.8 °F 55.4 °F 82% 29.94 in 1.8 mi SE 9.2 mph - 0.01 in Rain Light Rain
8:33 AM 60.8 °F 57.2 °F 88% 29.93 in 3.0 mi SE 8.1 mph - 0.01 in Rain Light Rain
8:53 AM 61.0 °F 55.9 °F 83% 29.94 in 3.0 mi South 5.8 mph - 0.01 in Rain Light Rain
9:08 AM 60.8 °F 55.4 °F 82% 29.95 in 1.8 mi SSW 11.5 mph 17.3 mph 0.02 in Rain Rain
9:43 AM 60.8 °F 57.2 °F 88% 29.94 in 1.2 mi South 12.7 mph - 0.11 in Rain Light Rain
9:47 AM 60.8 °F 57.2 °F 88% 29.94 in 2.0 mi South 6.9 mph - 0.12 in Rain Light Rain
9:53 AM 60.1 °F 57.0 °F 90% 29.94 in 1.5 mi South 9.2 mph - 0.13 in Rain Rain
10:06 AM 60.8 °F 57.2 °F 88% 29.94 in 2.0 mi South 9.2 mph - 0.02 in Rain Light Rain
10:53 AM 61.0 °F 57.0 °F 87% 29.92 in 2.0 mi SSE 11.5 mph - 0.09 in Rain Light Rain
11:26 AM 60.8 °F 57.2 °F 88% 29.91 in 3.0 mi SSE 11.5 mph - 0.00 in Rain Light Rain
11:47 AM 62.6 °F 59.0 °F 88% 29.90 in 2.0 mi SSE 11.5 mph - 0.01 in Rain Light Rain
11:53 AM 62.1 °F 59.0 °F 90% 29.90 in 2.0 mi South 13.8 mph 21.9 mph 0.01 in Rain Light Rain
12:03 PM 62.6 °F 59.0 °F 88% 29.89 in 1.8 mi South 17.3 mph 21.9 mph 0.01 in Rain Light Rain
12:10 PM 62.6 °F 59.0 °F 88% 29.89 in 1.8 mi South 13.8 mph 23.0 mph 0.02 in Rain Light Rain
12:17 PM 62.6 °F 59.0 °F 88% 29.89 in 2.0 mi South 13.8 mph - 0.02 in Rain Light Rain
12:19 PM 62.6 °F 59.0 °F 88% 29.89 in 2.0 mi South 15.0 mph - 0.02 in Rain Light Rain
12:53 PM 63.0 °F 60.1 °F 90% 29.87 in 2.0 mi South 17.3 mph 27.6 mph 0.04 in Rain Light Rain
1:05 PM 62.6 °F 60.8 °F 94% 29.87 in 1.2 mi South 18.4 mph 24.2 mph N/A Rain Rain
1:26 PM 62.6 °F 60.8 °F 94% 29.86 in 2.0 mi South 17.3 mph 21.9 mph 0.10 in Rain Light Rain
1:39 PM 64.4 °F 60.8 °F 88% 29.85 in 3.0 mi South 18.4 mph 27.6 mph 0.10 in Rain Light Rain
1:53 PM 64.0 °F 61.0 °F 90% 29.84 in 3.0 mi South 19.6 mph 27.6 mph 0.11 in Rain Light Rain
2:02 PM 64.4 °F 60.8 °F 88% 29.84 in 3.0 mi South 19.6 mph - 0.03 in Rain Rain
2:23 PM 64.4 °F 62.6 °F 94% 29.83 in 1.5 mi South 13.8 mph 23.0 mph 0.12 in Rain Rain
2:42 PM 64.4 °F 60.8 °F 88% 29.83 in 2.5 mi WSW 9.2 mph 28.8 mph 0.15 in Rain Light Rain
2:53 PM 64.0 °F 61.0 °F 90% 29.83 in 2.5 mi SW 6.9 mph - 0.16 in Rain Light Rain
2:55 PM 64.4 °F 60.8 °F 88% 29.83 in 3.0 mi WSW 6.9 mph - 0.00 in Rain Light Rain
3:46 PM 64.4 °F 62.6 °F 94% 29.81 in 1.5 mi SW 13.8 mph 19.6 mph 0.04 in Rain Light Rain
3:53 PM 64.0 °F 62.1 °F 93% 29.81 in 1.5 mi SW 12.7 mph 19.6 mph 0.05 in Rain Rain
4:18 PM 62.6 °F 60.8 °F 94% 29.81 in 2.0 mi West 11.5 mph 20.7 mph 0.02 in Rain Light Rain
4:28 PM 62.6 °F 60.8 °F 94% 29.81 in 2.0 mi WSW 6.9 mph - 0.02 in Rain Light Rain
4:46 PM 62.6 °F 59.0 °F 88% 29.80 in 5.0 mi WSW 4.6 mph - 0.02 in   Mostly Cloudy
4:53 PM 64.0 °F 57.9 °F 80% 29.80 in 5.0 mi SSW 4.6 mph - 0.02 in   Mostly Cloudy
5:50 PM 62.6 °F 57.2 °F 82% 29.81 in 10.0 mi WSW 10.4 mph 17.3 mph 0.00 in   Overcast
5:53 PM 63.0 °F 57.9 °F 84% 29.82 in 10.0 mi WSW 10.4 mph 17.3 mph 0.00 in   Overcast
6:19 PM 62.6 °F 57.2 °F 82% 29.82 in 10.0 mi West 8.1 mph - 0.00 in   Mostly Cloudy
6:53 PM 62.1 °F 55.9 °F 80% 29.82 in 10.0 mi West 9.2 mph - 0.00 in   Scattered Clouds
7:53 PM 61.0 °F 54.0 °F 78% 29.84 in 10.0 mi WSW 8.1 mph - N/A   Scattered Clouds
8:53 PM 61.0 °F 52.0 °F 72% 29.86 in 10.0 mi West 5.8 mph - N/A   Partly Cloudy
9:53 PM 60.8 °F 51.8 °F 72% 29.87 in 10.0 mi SW 4.6 mph - N/A   Partly Cloudy
10:53 PM 59.0 °F 51.1 °F 75% 29.87 in 10.0 mi South 4.6 mph - N/A   Scattered Clouds
11:53 PM 60.1 °F 48.0 °F 64% 29.86 in 10.0 mi Variable 4.6 mph - N/A   Clear